[[{"header":{"parameterUnit":"m.s-1","parameterCategory":1,"la1":30.2991,"la2":30.254,"lo1":-89.0895,"lo2":-89.0444,"dy":0.0017,"dx":0.0017,"nx":28,"ny":28,"refTime":"2025-06-07T21:00:00:Z","depth":0,"parameterNumber":2,"parameterNumberName":"U-component_of_WINDS"},"data":[0,0,0,0,0,0,0,0,0,0,0,0,0,0,0,0,0,0,0,0,0,0,0,0,0,0,0,0,0,0,0,0,0,0,0,0,0,0,0,0,0,0,0,0,0,0,0,0,0,0,0,0,0,0,0,0,0,0,3.838,3.8381,0,3.8461,3.8462,3.8463,3.8442,3.8441,3.8439,3.8438,3.8525,3.8528,3.8532,0,0,0,0,0,0,0,0,0,0,0,0,0,3.8208,3.8212,3.838,3.8381,3.8382,3.8461,3.8462,3.8464,3.8443,3.8441,3.8439,3.8437,3.8523,3.8528,3.8533,0,0,0,0,0,0,0,0,0,0,0,0,0,3.8286,3.8213,3.838,3.8381,3.8382,3.8461,3.8462,3.8464,3.8443,3.8441,3.8438,3.8436,3.8522,3.8527,3.8533,3.8617,0,0,3.8551,3.8553,0,0,0,0,0,0,0,0,3.8282,3.8292,3.838,3.8381,3.8382,3.8439,3.8434,3.8515,3.8444,3.842,3.8437,3.8435,3.8498,3.8506,3.8527,3.8621,3.8625,3.8551,3.8555,3.8557,3.8559,0,0,0,0,0,0,0,3.8276,3.8289,3.8412,3.8381,3.8382,3.8378,3.8387,3.8449,3.8472,3.8422,3.842,3.843,3.8499,3.8521,3.8529,3.8626,3.8551,3.8556,3.856,3.8562,3.8793,3.8796,0,0,0,0,0,0,3.8269,3.8284,3.841,3.8415,3.8325,3.8383,3.8393,3.8423,3.8471,3.8476,3.8432,3.8429,3.8513,3.8522,3.8532,3.8632,3.8557,3.8563,3.8566,3.8791,3.8794,3.8797,0,0,0,0,0,0,3.8266,3.8281,3.8406,3.8349,3.8365,3.8389,3.8424,3.8426,3.8449,3.8479,3.8483,3.8451,3.8511,3.8524,3.8596,3.8635,3.8565,3.857,3.8788,3.8792,3.8795,3.8834,0,0,0,0,0,0,3.8261,3.828,3.8311,3.835,3.8368,3.8468,3.8426,3.843,3.8458,3.8455,3.8498,3.8502,3.851,3.8587,3.8601,3.8641,3.8575,3.8784,3.8789,3.8794,3.883,3.8839,3.8847,0,0,0,0,0,3.8255,3.832,3.8313,3.8328,3.8408,3.847,3.8481,3.8487,3.8461,3.8494,3.8513,3.8501,3.8629,3.8595,3.8611,3.8653,3.8782,3.8788,3.8794,3.8826,3.8837,3.8847,0,0,0,0,0,0,3.8286,3.8325,3.8318,3.8397,3.843,3.8467,3.8507,3.85,3.8542,3.8537,3.8545,3.8555,3.8628,3.8648,3.861,3.8737,3.8702,3.8711,3.872,3.8732,3.874,3.8733,3.858,0,0,0,0,0,3.8302,3.8349,3.8381,3.8448,3.8465,3.8483,3.8511,3.8513,3.8549,3.8563,3.8588,3.8624,3.8671,3.8703,3.8749,3.8833,3.8842,3.887,3.8879,3.8886,3.8894,3.8939,3.8951,3.8817,3.8817,3.8817,0,0,3.8336,3.8363,3.8392,3.8455,3.8481,3.853,3.8495,3.8549,3.8585,3.8572,3.864,3.866,3.8701,3.8778,3.8814,3.8797,3.8933,3.8894,3.8899,3.8903,3.8946,3.8959,3.897,3.8821,3.882,3.882,0,0,3.8422,3.8447,3.8505,3.8532,3.8571,3.8583,3.8597,3.8635,3.8647,3.8716,3.8706,3.8751,3.8833,3.8862,3.8888,3.8984,3.8975,3.9,3.9045,3.9089,3.91,3.9109,3.9142,3.9154,3.9008,3.9008,3.9008,0,3.8459,3.8531,3.8536,3.859,3.8618,3.8606,3.8665,3.8691,3.8745,3.8764,3.8745,3.8847,3.8874,3.8958,3.8981,3.9003,3.9019,3.8994,3.9098,3.9107,3.9116,3.9148,3.916,3.901,3.901,3.901,3.9009,0,3.8574,3.8625,3.8667,3.8716,3.8749,3.8805,3.882,3.8852,3.8852,3.8866,3.8936,3.8968,3.9019,3.904,3.9041,3.9124,3.9112,3.9095,3.906,3.9131,3.9161,3.9173,3.9014,3.9013,3.9012,3.9012,0,0,3.8681,3.8733,3.8748,3.877,3.8813,3.8852,3.8909,3.8958,3.8985,3.9023,3.9069,3.914,3.9124,3.9153,3.9157,3.9195,3.9268,3.9174,3.9175,3.9189,3.9361,3.9372,3.9386,3.9263,3.9265,3.9267,3.9357,0,3.877,3.8866,3.8872,3.896,3.9006,3.8997,3.9045,3.9077,3.9092,3.9135,3.9152,3.92,3.9177,3.9194,3.9232,3.9251,3.9303,3.9245,3.9306,3.9308,3.9294,3.9402,3.9414,3.9498,3.9369,3.9371,3.9372,0,3.8885,3.8924,3.9016,3.9052,3.9072,3.9115,3.916,3.9201,3.9237,3.9245,3.9277,3.9276,3.9334,3.9297,3.9377,3.9338,3.9363,3.9377,3.938,3.9385,3.9343,3.9408,3.9524,3.9536,3.9391,3.939,3.9388,0,3.8952,3.9028,3.9093,3.9112,3.9156,3.9186,3.9206,3.924,3.9269,3.9309,3.9328,3.9375,3.94,3.9437,3.9449,3.9421,3.9528,3.9493,3.9536,3.9536,3.9557,3.9556,3.9678,3.9577,3.9577,3.9576,3.9576,0,3.9049,3.9105,3.9123,3.9162,3.9225,3.9233,3.9295,3.9313,3.9343,3.9387,3.9382,3.9423,3.9436,3.948,3.949,3.9554,3.9566,3.9574,3.9576,3.9573,3.9572,3.9589,3.9583,3.958,3.9579,3.9578,3.9578,0,3.9133,3.9148,3.9217,3.9252,3.9262,3.9307,3.9338,3.9376,3.939,3.9445,3.9459,3.9481,3.9532,3.9547,3.961,3.9616,3.969,3.9688,3.9677,3.9677,3.9719,3.9714,3.9855,3.9873,3.9762,3.9763,3.9764,0,3.9193,3.9236,3.9276,3.9304,3.9324,3.937,3.9399,3.9408,3.9439,3.9483,3.9516,3.9566,3.9606,3.9689,3.9711,3.9758,3.9756,3.9802,3.9763,3.9759,3.9754,3.9751,3.9755,3.9809,3.981,3.9811,3.9812,0,3.9298,3.9302,3.9344,3.9388,3.9422,3.9458,3.9492,3.9516,3.953,3.9565,3.9616,3.9647,3.971,3.9759,3.9807,3.9828,3.9822,3.9824,3.9836,3.9833,3.9825,3.9828,3.9695,3.982,3.9819,3.9819,3.9818,3.9818,3.9371,3.9408,3.9441,3.9487,3.9514,3.9545,3.9583,3.9601,3.9644,3.9694,3.9698,3.9753,3.9788,3.9852,3.9875,3.9919,3.9906,3.9924,3.9928,3.9932,3.9934,3.9819,3.9928,3.9928,3.9928,3.9928,3.9928,0,3.9473,3.9494,3.9536,3.9583,3.962,3.9611,3.9648,3.9679,3.9727,3.976,3.98,3.9858,3.9906,3.9933,3.9981,4.0011,4.0009,4.0023,4.002,4.0025,3.9945,3.9928,4.0023,4.0023,4.0023,4.0023,4.0023,4.0023,3.953,3.9592,3.9601,3.9676,3.9697,3.975,3.9771,3.9801,3.9827,3.9892,3.9932,3.9948,3.9979,4.0029,4.0072,4.0079,4.0096,4.0111,4.0116,4.004,4.003,4.0021,4.0006,4.0115,4.0115,4.0192,4.0193,4.0193]},{"header":{"parameterUnit":"m.s-1","parameterCategory":1,"la1":30.2991,"la2":30.254,"lo1":-89.0895,"lo2":-89.0444,"dy":0.0017,"dx":0.0017,"nx":28,"ny":28,"refTime":"2025-06-07T21:00:00:Z","depth":0,"parameterNumber":3,"parameterNumberName":"V-component_of_WINDS"},"data":[0,0,0,0,0,0,0,0,0,0,0,0,0,0,0,0,0,0,0,0,0,0,0,0,0,0,0,0,0,0,0,0,0,0,0,0,0,0,0,0,0,0,0,0,0,0,0,0,0,0,0,0,0,0,0,0,0,0,2.7357,2.7357,0,2.7384,2.7384,2.7385,2.7379,2.7378,2.7378,2.7377,2.7405,2.7406,2.7407,0,0,0,0,0,0,0,0,0,0,0,0,0,2.7299,2.73,2.7357,2.7357,2.7357,2.7384,2.7384,2.7385,2.7379,2.7378,2.7378,2.7377,2.7404,2.7406,2.7407,0,0,0,0,0,0,0,0,0,0,0,0,0,2.7325,2.7301,2.7356,2.7358,2.7358,2.7384,2.7384,2.7385,2.7379,2.7378,2.7377,2.7377,2.7404,2.7406,2.7408,2.7434,0,0,2.7413,2.7414,0,0,0,0,0,0,0,0,2.7324,2.7327,2.7357,2.7358,2.7358,2.7377,2.7374,2.7401,2.7379,2.7371,2.7377,2.7376,2.7396,2.7399,2.7405,2.7435,2.7436,2.7413,2.7414,2.7415,2.7416,0,0,0,0,0,0,0,2.7322,2.7326,2.7367,2.7358,2.7358,2.7357,2.736,2.7379,2.7388,2.7372,2.7371,2.7375,2.7396,2.7404,2.7406,2.7437,2.7413,2.7415,2.7416,2.7417,2.749,2.7491,0,0,0,0,0,0,2.732,2.7325,2.7366,2.7368,2.7339,2.7358,2.7362,2.7372,2.7387,2.7389,2.7375,2.7374,2.7401,2.7404,2.7407,2.7439,2.7415,2.7417,2.7418,2.7489,2.749,2.7491,0,0,0,0,0,0,2.7319,2.7324,2.7365,2.7346,2.7352,2.736,2.7372,2.7373,2.738,2.739,2.7391,2.7381,2.74,2.7404,2.7427,2.744,2.7418,2.7419,2.7488,2.7489,2.7491,2.7503,0,0,0,0,0,0,2.7317,2.7323,2.7333,2.7347,2.7353,2.7385,2.7372,2.7374,2.7383,2.7382,2.7396,2.7398,2.74,2.7425,2.7429,2.7442,2.7421,2.7487,2.7489,2.749,2.7502,2.7505,2.7508,0,0,0,0,0,2.7315,2.7335,2.7334,2.7339,2.7365,2.7386,2.7389,2.7392,2.7384,2.7394,2.7401,2.7397,2.7438,2.7427,2.7432,2.7446,2.7486,2.7488,2.749,2.7501,2.7504,2.7507,0,0,0,0,0,0,2.7323,2.7337,2.7335,2.7361,2.7372,2.7385,2.7398,2.7396,2.741,2.7408,2.7411,2.7414,2.7438,2.7444,2.7432,2.7472,2.7461,2.7464,2.7467,2.7471,2.7474,2.7472,2.7422,0,0,0,0,0,2.7328,2.7343,2.7355,2.7376,2.7382,2.7389,2.7398,2.74,2.7411,2.7416,2.7424,2.7436,2.7451,2.7461,2.7476,2.7503,2.7506,2.7515,2.7518,2.752,2.7522,2.7537,2.7542,2.7497,2.7497,2.7497,0,0,2.7338,2.7347,2.7357,2.7378,2.7387,2.7404,2.7393,2.7411,2.7423,2.7419,2.7441,2.7447,2.7461,2.7486,2.7497,2.7492,2.7535,2.7522,2.7524,2.7525,2.754,2.7544,2.7548,2.7499,2.7499,2.7498,0,0,2.7364,2.7373,2.7392,2.7401,2.7415,2.742,2.7424,2.7438,2.7442,2.7464,2.7462,2.7476,2.7503,2.7512,2.7521,2.7552,2.7549,2.7556,2.7571,2.7586,2.7589,2.7593,2.7604,2.7608,2.7559,2.7559,2.7559,0,2.7375,2.7399,2.7402,2.742,2.7429,2.7427,2.7446,2.7455,2.7473,2.748,2.7474,2.7507,2.7516,2.7543,2.7551,2.7558,2.7563,2.7555,2.7589,2.7592,2.7595,2.7606,2.761,2.756,2.756,2.756,2.756,0,2.7411,2.7428,2.7442,2.746,2.7471,2.749,2.7495,2.7506,2.7507,2.7512,2.7535,2.7546,2.7563,2.7569,2.757,2.7597,2.7594,2.7588,2.7577,2.76,2.761,2.7614,2.7561,2.7561,2.7561,2.756,0,0,2.7443,2.7463,2.7468,2.7476,2.7491,2.7505,2.7523,2.754,2.755,2.7563,2.7578,2.7601,2.7597,2.7606,2.7608,2.762,2.7645,2.7614,2.7614,2.7619,2.7676,2.768,2.7685,2.7643,2.7644,2.7645,2.7675,0,2.7471,2.7504,2.7507,2.7537,2.7553,2.7551,2.7567,2.7579,2.7584,2.7599,2.7605,2.7621,2.7614,2.762,2.7632,2.7639,2.7656,2.7637,2.7658,2.7659,2.7655,2.769,2.7694,2.7723,2.7679,2.768,2.768,0,2.7507,2.7522,2.7553,2.7567,2.7574,2.7588,2.7604,2.7618,2.7631,2.7635,2.7646,2.7646,2.7665,2.7654,2.7681,2.7667,2.7676,2.7681,2.7682,2.7684,2.7671,2.7693,2.7732,2.7736,2.7687,2.7686,2.7686,0,2.7527,2.7554,2.7577,2.7584,2.7601,2.7611,2.7618,2.7631,2.7641,2.7655,2.7662,2.7678,2.7687,2.77,2.7704,2.7695,2.7731,2.772,2.7735,2.7735,2.7742,2.7742,2.7783,2.7748,2.7748,2.7748,2.7748,0,2.7558,2.7577,2.7586,2.76,2.7621,2.7625,2.7647,2.7654,2.7665,2.768,2.768,2.7694,2.7699,2.7714,2.7718,2.774,2.7744,2.7747,2.7748,2.7748,2.7747,2.7753,2.7751,2.7749,2.7749,2.7749,2.7748,0,2.7584,2.7591,2.7615,2.7629,2.7633,2.7648,2.7661,2.7674,2.768,2.7699,2.7704,2.7713,2.7731,2.7737,2.7758,2.7761,2.7787,2.7786,2.7782,2.7783,2.7797,2.7796,2.7844,2.785,2.7811,2.7812,2.7812,0,2.7603,2.7618,2.7634,2.7644,2.7652,2.7668,2.7679,2.7684,2.7695,2.7712,2.7723,2.7741,2.7756,2.7784,2.7793,2.781,2.7809,2.7825,2.7812,2.7811,2.781,2.7809,2.7811,2.7827,2.7828,2.7828,2.7828,0,2.7636,2.7639,2.7654,2.7671,2.7684,2.7697,2.771,2.7719,2.7725,2.7738,2.7757,2.7768,2.7791,2.7808,2.7826,2.7833,2.7832,2.7832,2.7837,2.7836,2.7834,2.7836,2.7789,2.7831,2.7831,2.7831,2.7831,2.783,2.7659,2.7672,2.7686,2.7703,2.7714,2.7726,2.774,2.7747,2.7763,2.7782,2.7784,2.7804,2.7817,2.7841,2.7849,2.7865,2.7861,2.7867,2.7869,2.787,2.7872,2.7831,2.7868,2.7868,2.7868,2.7868,2.7868,0,2.7692,2.7701,2.7717,2.7735,2.7749,2.7747,2.7762,2.7773,2.7791,2.7804,2.7819,2.784,2.7858,2.7868,2.7886,2.7897,2.7897,2.7902,2.7901,2.7903,2.7874,2.7869,2.7901,2.7901,2.7901,2.7901,2.7901,2.7901,2.7711,2.7734,2.7738,2.7766,2.7775,2.7795,2.7803,2.7815,2.7825,2.785,2.7864,2.7871,2.7883,2.7902,2.7918,2.7921,2.7927,2.7933,2.7935,2.7908,2.7905,2.7901,2.7896,2.7934,2.7934,2.7962,2.7962,2.7962]}]]